Location: Fort Wayne
(41.1310°N, 85.1290°W)
Time: 13:56:07
(UTC-04:00)

Oscar 19 - Visible Passes

Search period start: 24 August 2016 00:00
Search period end: 03 September 2016 00:00
Orbit: 774 x 790 km, 98.5° (Epoch: 23 August)

Date Brightness Start Highest point End Pass type
(mag) Time Alt. Az. Time Alt. Az. Time Alt. Az.
24 Aug 13.3 01:55:49 10° ENE 01:56:21 11° ENE 01:56:21 11° ENE visible
24 Aug 11.6 03:33:17 10° N 03:36:54 44° N 03:36:54 44° N visible
25 Aug 12.0 03:01:30 10° NNE 03:04:38 36° NE 03:04:38 36° NE visible
25 Aug 12.5 04:42:09 10° NNW 04:45:11 17° WNW 04:45:11 17° WNW visible
26 Aug 12.7 02:30:08 10° NNE 02:32:22 22° NE 02:32:22 22° NE visible
26 Aug 11.9 04:09:27 10° N 04:12:55 29° NW 04:12:55 29° NW visible
27 Aug 13.3 01:59:31 10° NE 02:00:05 12° ENE 02:00:05 12° ENE visible
27 Aug 11.7 03:37:16 10° N 03:40:38 39° N 03:40:38 39° N visible
28 Aug 12.1 03:05:27 10° NNE 03:08:22 34° NNE 03:08:22 34° NNE visible
28 Aug 12.6 04:46:19 10° NNW 04:48:55 16° NW 04:48:55 16° NW visible
29 Aug 12.8 02:34:01 10° NNE 02:36:06 22° NE 02:36:06 22° NE visible
29 Aug 12.1 04:13:30 10° N 04:16:39 26° NW 04:16:39 26° NW visible
30 Aug 13.3 02:03:15 10° NE 02:03:49 12° NE 02:03:49 12° NE visible
30 Aug 11.9 03:41:16 10° N 03:44:23 35° NNW 03:44:23 35° NNW visible
31 Aug 12.3 03:09:23 10° NNE 03:12:06 31° NNE 03:12:06 31° NNE visible
31 Aug 12.7 04:50:29 10° NNW 04:52:39 15° NW 04:52:39 15° NW visible
01 Sep 12.9 02:37:54 10° NNE 02:39:50 21° NE 02:39:50 21° NE visible
01 Sep 12.3 04:17:32 10° N 04:20:23 24° NW 04:20:23 24° NW visible
02 Sep 13.4 02:07:01 10° NE 02:07:33 12° NE 02:07:33 12° NE visible
02 Sep 12.1 03:45:15 10° N 03:48:06 31° NNW 03:48:06 31° NNW visible
